Location: *
(49.7115°N, 15.0136°E)
Time: 07:05:12
(UTC+00:00)

Meteor 2-4 Rocket - Pass Details

Date: 27 February 2020
Orbit: 799 x 908 km, 81.2° (Epoch: 30 March)

Event Time Altitude Azimuth Distance (km) Brightness Sun altitude
Rises 18:48:25 0° 346° (NNW) 3,530 7.3 -21.7°
Reaches altitude 10° 18:50:54 10° 344° (NNW) 2,593 6.6 -22.1°
Maximum altitude 18:56:47 70° 262° (W) 968 4.1 -23.0°
Drops below altitude 10° 19:02:40 10° 180° (S) 2,583 6.1 -23.9°
Enters shadow 19:03:44 - 179° (S) 2,987 6.4 -24.1°
